[[{"header":{"parameterUnit":"m.s-1","parameterCategory":1,"la1":30.2991,"la2":30.254,"lo1":-89.0895,"lo2":-89.0444,"dy":0.0017,"dx":0.0017,"nx":28,"ny":28,"refTime":"2023-09-04T21:00:00:Z","depth":0,"parameterNumber":2,"parameterNumberName":"U-component_of_WINDS"},"data":[0,0,0,0,0,0,0,0,0,0,0,0,0,0,0,0,0,0,0,0,0,0,0,0,0,0,0,0,0,0,0,0,0,0,0,0,0,0,0,0,0,0,0,0,0,0,0,0,0,0,0,0,0,0,0,0,0,0,-3.8411,-3.8412,0,-3.8477,-3.8478,-3.8479,-3.8444,-3.8442,-3.844,-3.8439,-3.8505,-3.8509,-3.8512,0,0,0,0,0,0,0,0,0,0,0,0,0,-3.8255,-3.8259,-3.8411,-3.8412,-3.8413,-3.8477,-3.8478,-3.8479,-3.8444,-3.8442,-3.844,-3.8438,-3.8504,-3.8508,-3.8512,0,0,0,0,0,0,0,0,0,0,0,0,0,-3.8322,-3.826,-3.8411,-3.8403,-3.8403,-3.8477,-3.8478,-3.8479,-3.8445,-3.8442,-3.8439,-3.8437,-3.8503,-3.8508,-3.8513,-3.8597,0,0,-3.8529,-3.8531,0,0,0,0,0,0,0,0,-3.8319,-3.8328,-3.8404,-3.8404,-3.8404,-3.845,-3.8447,-3.8519,-3.8445,-3.8429,-3.8439,-3.8436,-3.8489,-3.8495,-3.8513,-3.8601,-3.8603,-3.8529,-3.8532,-3.8534,-3.8536,0,0,0,0,0,0,0,-3.8314,-3.8325,-3.8437,-3.8405,-3.8405,-3.8396,-3.8403,-3.8461,-3.8473,-3.843,-3.8428,-3.8436,-3.8488,-3.8508,-3.8514,-3.8604,-3.8529,-3.8533,-3.8537,-3.8539,-3.8763,-3.8766,0,0,0,0,0,0,-3.831,-3.8321,-3.8435,-3.8439,-3.8354,-3.8401,-3.8409,-3.8438,-3.8472,-3.8475,-3.8438,-3.8434,-3.8501,-3.8508,-3.8517,-3.8616,-3.8534,-3.8539,-3.8542,-3.876,-3.8764,-3.8767,0,0,0,0,0,0,-3.8307,-3.832,-3.8433,-3.838,-3.8393,-3.8407,-3.844,-3.844,-3.846,-3.8478,-3.848,-3.8456,-3.8499,-3.8509,-3.8577,-3.8618,-3.8541,-3.8546,-3.8757,-3.8761,-3.8765,-3.8818,0,0,0,0,0,0,-3.8302,-3.8319,-3.8352,-3.8381,-3.8396,-3.8493,-3.8442,-3.8444,-3.8469,-3.8464,-3.8496,-3.8498,-3.8498,-3.857,-3.8582,-3.8624,-3.855,-3.8753,-3.8759,-3.8764,-3.8812,-3.8823,-3.8833,0,0,0,0,0,-3.8297,-3.8364,-3.8354,-3.8368,-3.8437,-3.8495,-3.8504,-3.8502,-3.8473,-3.8505,-3.8517,-3.8497,-3.8612,-3.8577,-3.8591,-3.8635,-3.8751,-3.8757,-3.8764,-3.8808,-3.8821,-3.8832,0,0,0,0,0,0,-3.834,-3.8368,-3.8356,-3.8435,-3.8463,-3.8489,-3.853,-3.8516,-3.8553,-3.8547,-3.8543,-3.855,-3.8621,-3.8635,-3.8595,-3.8718,-3.8677,-3.8686,-3.8706,-3.8718,-3.8728,-3.8723,-3.8554,0,0,0,0,0,-3.8358,-3.8403,-3.8425,-3.8493,-3.8507,-3.8516,-3.8541,-3.8538,-3.8566,-3.8578,-3.8594,-3.8623,-3.8665,-3.8693,-3.8733,-3.8815,-3.882,-3.8852,-3.8862,-3.887,-3.8878,-3.8921,-3.8935,-3.8788,-3.8788,-3.8788,0,0,-3.8397,-3.8418,-3.8447,-3.8502,-3.8523,-3.8568,-3.8526,-3.8577,-3.8611,-3.8585,-3.865,-3.8663,-3.8695,-3.877,-3.8803,-3.8783,-3.892,-3.8879,-3.8885,-3.8888,-3.8929,-3.8943,-3.8955,-3.8793,-3.8792,-3.8791,0,0,-3.8491,-3.8512,-3.8569,-3.8591,-3.8624,-3.8629,-3.8643,-3.8672,-3.8679,-3.8745,-3.8726,-3.8766,-3.884,-3.8862,-3.8883,-3.8986,-3.8969,-3.8999,-3.9051,-3.9093,-3.9105,-3.9115,-3.915,-3.9163,-3.9007,-3.9007,-3.9007,0,-3.8535,-3.8603,-3.8601,-3.8653,-3.8677,-3.8656,-3.8714,-3.8736,-3.8779,-3.8796,-3.8774,-3.8865,-3.8885,-3.8964,-3.8989,-3.9007,-3.9022,-3.8995,-3.9104,-3.9114,-3.9123,-3.9156,-3.917,-3.9011,-3.901,-3.901,-3.901,0,-3.8655,-3.8703,-3.8745,-3.8788,-3.8817,-3.8872,-3.8877,-3.8907,-3.8901,-3.8909,-3.8975,-3.8998,-3.9042,-3.9061,-3.9056,-3.914,-3.9126,-3.9104,-3.9062,-3.914,-3.9171,-3.9184,-3.9015,-3.9014,-3.9013,-3.9012,0,0,-3.8777,-3.8817,-3.8832,-3.8851,-3.8885,-3.8922,-3.8975,-3.9018,-3.9043,-3.9075,-3.9119,-3.9181,-3.9161,-3.9185,-3.9182,-3.9219,-3.9297,-3.9192,-3.9193,-3.9209,-3.9388,-3.9404,-3.9418,-3.9286,-3.9289,-3.9291,-3.9385,0,-3.8871,-3.8964,-3.8963,-3.9049,-3.9093,-3.9074,-3.9121,-3.9146,-3.9156,-3.9193,-3.9204,-3.9247,-3.9218,-3.9232,-3.9268,-3.928,-3.9332,-3.9273,-3.9326,-3.9328,-3.9317,-3.9435,-3.9451,-3.9539,-3.9397,-3.94,-3.9401,0,-3.8994,-3.9028,-3.9119,-3.9145,-3.9164,-3.9205,-3.9244,-3.9281,-3.931,-3.9314,-3.9341,-3.9332,-3.9386,-3.9344,-3.9418,-3.9377,-3.9399,-3.9408,-3.9412,-3.9415,-3.9368,-3.9439,-3.9567,-3.958,-3.942,-3.9419,-3.9418,0,-3.9071,-3.914,-3.9203,-3.922,-3.9253,-3.9283,-3.9298,-3.9324,-3.935,-3.9384,-3.94,-3.944,-3.9462,-3.9493,-3.9495,-3.9465,-3.9569,-3.9528,-3.9572,-3.9572,-3.9594,-3.9592,-3.9725,-3.9611,-3.9611,-3.9611,-3.961,0,-3.9176,-3.9231,-3.9238,-3.9276,-3.9338,-3.9336,-3.9397,-3.941,-3.9433,-3.9473,-3.946,-3.9498,-3.95,-3.9538,-3.9541,-3.96,-3.9611,-3.9615,-3.9614,-3.9615,-3.9614,-3.9628,-3.9621,-3.9614,-3.9613,-3.9613,-3.9612,0,-3.9272,-3.9279,-3.9345,-3.9371,-3.9379,-3.9423,-3.9445,-3.9482,-3.9489,-3.954,-3.9552,-3.9565,-3.961,-3.9615,-3.9668,-3.9669,-3.9741,-3.9735,-3.9731,-3.9729,-3.9773,-3.9768,-3.9918,-3.9936,-3.9812,-3.9813,-3.9814,0,-3.9337,-3.9379,-3.941,-3.9435,-3.9452,-3.9494,-3.952,-3.952,-3.9548,-3.9583,-3.9615,-3.9659,-3.9693,-3.9766,-3.9779,-3.9819,-3.9813,-3.9863,-3.9819,-3.9818,-3.9812,-3.9808,-3.9812,-3.9871,-3.9872,-3.9873,-3.9874,0,-3.9452,-3.9453,-3.9491,-3.9529,-3.956,-3.9591,-3.962,-3.9642,-3.9646,-3.9677,-3.9723,-3.975,-3.9803,-3.9846,-3.9885,-3.9901,-3.9888,-3.9888,-3.99,-3.99,-3.9895,-3.9897,-3.9752,-3.9884,-3.9883,-3.9882,-3.9882,-3.9881,-3.9534,-3.957,-3.9596,-3.9638,-3.966,-3.9687,-3.9722,-3.9734,-3.9772,-3.9815,-3.9813,-3.9863,-3.989,-3.9941,-3.996,-3.9999,-3.9982,-4.0,-4.0004,-4.0008,-4.0012,-3.9891,-4.0006,-4.0006,-4.0005,-4.0005,-4.0005,0,-3.9647,-3.9663,-3.9701,-3.9741,-3.9774,-3.976,-3.9791,-3.9819,-3.9863,-3.9889,-3.9923,-3.9975,-4.0017,-4.0034,-4.0074,-4.0102,-4.0097,-4.0112,-4.0109,-4.0113,-4.0025,-4.001,-4.0115,-4.0115,-4.0115,-4.0115,-4.0115,-4.0115,-3.9709,-3.9769,-3.9773,-3.9843,-3.9858,-3.9907,-3.9925,-3.995,-3.9971,-4.0029,-4.0063,-4.0074,-4.0096,-4.0138,-4.0176,-4.0179,-4.0194,-4.0212,-4.0213,-4.013,-4.0119,-4.0108,-4.0094,-4.0216,-4.0216,-4.0297,-4.0298,-4.0299]},{"header":{"parameterUnit":"m.s-1","parameterCategory":1,"la1":30.2991,"la2":30.254,"lo1":-89.0895,"lo2":-89.0444,"dy":0.0017,"dx":0.0017,"nx":28,"ny":28,"refTime":"2023-09-04T21:00:00:Z","depth":0,"parameterNumber":3,"parameterNumberName":"V-component_of_WINDS"},"data":[0,0,0,0,0,0,0,0,0,0,0,0,0,0,0,0,0,0,0,0,0,0,0,0,0,0,0,0,0,0,0,0,0,0,0,0,0,0,0,0,0,0,0,0,0,0,0,0,0,0,0,0,0,0,0,0,0,0,5.2207,5.2207,0,5.2216,5.2216,5.2216,5.2135,5.2133,5.2131,5.2129,5.2137,5.2139,5.2141,0,0,0,0,0,0,0,0,0,0,0,0,0,5.2119,5.2121,5.2207,5.2207,5.2208,5.2216,5.2216,5.2216,5.2136,5.2133,5.213,5.2128,5.2136,5.2138,5.2141,0,0,0,0,0,0,0,0,0,0,0,0,0,5.2145,5.2121,5.2207,5.2168,5.2165,5.2216,5.2216,5.2216,5.2136,5.2133,5.2129,5.2126,5.2135,5.2138,5.2142,5.223,0,0,5.2152,5.2154,0,0,0,0,0,0,0,0,5.2144,5.2149,5.2174,5.2171,5.2167,5.2171,5.2188,5.2221,5.2137,5.2147,5.2129,5.2125,5.2151,5.2153,5.2162,5.2231,5.2231,5.2152,5.2155,5.2156,5.2157,0,0,0,0,0,0,0,5.2142,5.2148,5.2211,5.2174,5.217,5.215,5.215,5.2194,5.2168,5.2146,5.214,5.2142,5.2148,5.2159,5.2161,5.2231,5.2152,5.2155,5.2158,5.2159,5.2371,5.2374,0,0,0,0,0,0,5.2146,5.2147,5.221,5.2211,5.2147,5.2154,5.2154,5.2173,5.2167,5.2163,5.2145,5.2139,5.2154,5.2157,5.2161,5.2262,5.2156,5.2159,5.2161,5.2367,5.2372,5.2375,0,0,0,0,0,0,5.2144,5.2152,5.221,5.2177,5.2183,5.2159,5.2181,5.2175,5.2185,5.2166,5.2161,5.2161,5.2152,5.2156,5.2213,5.2261,5.2161,5.2164,5.2363,5.2369,5.2374,5.2466,0,0,0,0,0,0,5.2142,5.2152,5.2186,5.2179,5.2185,5.2263,5.2184,5.2178,5.2192,5.2183,5.2179,5.2175,5.2149,5.2208,5.2217,5.2264,5.2167,5.2359,5.2366,5.2372,5.2459,5.2474,5.2487,0,0,0,0,0,5.2139,5.2212,5.2188,5.2196,5.2227,5.2266,5.2269,5.2238,5.2196,5.2229,5.2217,5.2176,5.2256,5.2215,5.2223,5.2273,5.2355,5.2364,5.2371,5.2452,5.2471,5.2487,0,0,0,0,0,0,5.2225,5.221,5.2184,5.2257,5.2263,5.2252,5.2293,5.2259,5.2278,5.2269,5.2229,5.2229,5.2292,5.2288,5.2244,5.2357,5.2298,5.2308,5.2357,5.2374,5.2388,5.2386,5.217,0,0,0,0,0,5.2253,5.2286,5.2271,5.2337,5.2342,5.2317,5.2333,5.2308,5.2313,5.2315,5.2307,5.2313,5.2339,5.2357,5.238,5.2459,5.2456,5.2497,5.2512,5.2523,5.2532,5.2571,5.2588,5.2402,5.2402,5.2402,0,0,5.231,5.2306,5.2329,5.2354,5.2356,5.239,5.232,5.2359,5.2384,5.2321,5.2373,5.2368,5.2372,5.244,5.2469,5.2439,5.2583,5.2534,5.2543,5.2545,5.2581,5.2598,5.2614,5.2407,5.2406,5.2405,0,0,5.2431,5.2433,5.2486,5.2489,5.2493,5.2477,5.249,5.2484,5.2477,5.253,5.2483,5.2512,5.2558,5.2562,5.257,5.2693,5.2655,5.2702,5.2775,5.2814,5.2828,5.2841,5.2882,5.2898,5.2711,5.2711,5.2711,0,5.2501,5.2551,5.2518,5.256,5.2571,5.2517,5.257,5.2575,5.2587,5.2595,5.2562,5.2618,5.2617,5.2683,5.2713,5.2723,5.2735,5.27,5.2829,5.2842,5.2853,5.2891,5.2907,5.2716,5.2716,5.2715,5.2715,0,5.2635,5.2671,5.2714,5.2725,5.2742,5.279,5.2763,5.2784,5.2758,5.2745,5.2798,5.2795,5.2816,5.2831,5.2806,5.2894,5.2874,5.2836,5.2775,5.2877,5.2912,5.2927,5.2724,5.2722,5.2721,5.2719,0,0,5.2809,5.2802,5.2818,5.2822,5.2822,5.2849,5.2894,5.2914,5.2931,5.2942,5.2977,5.3018,5.2981,5.2991,5.2967,5.3001,5.3095,5.2958,5.2957,5.2981,5.3188,5.3215,5.3233,5.3071,5.3074,5.3076,5.3187,0,5.2924,5.3,5.2971,5.3049,5.3079,5.3029,5.3067,5.3071,5.306,5.3085,5.3072,5.3101,5.3052,5.3057,5.3089,5.3077,5.3136,5.3069,5.3102,5.3103,5.3099,5.3252,5.328,5.3385,5.3201,5.3203,5.3205,0,5.3068,5.3083,5.3164,5.3157,5.3169,5.3205,5.322,5.3245,5.3248,5.3237,5.3248,5.3216,5.3259,5.3201,5.3258,5.3213,5.3225,5.3221,5.3224,5.3223,5.3158,5.3252,5.3418,5.3432,5.3227,5.3225,5.3224,0,5.3183,5.3224,5.3277,5.3282,5.3277,5.3303,5.3302,5.3302,5.3315,5.3329,5.3337,5.3357,5.3366,5.3382,5.3355,5.3316,5.3415,5.3355,5.3406,5.3407,5.3427,5.3425,5.3593,5.344,5.344,5.3439,5.3439,0,5.3313,5.3363,5.3328,5.336,5.3415,5.3382,5.3437,5.343,5.3431,5.346,5.3418,5.3446,5.3411,5.3436,5.3417,5.3465,5.3471,5.3462,5.3456,5.3464,5.3465,5.3469,5.346,5.3444,5.3443,5.3442,5.3441,0,5.3449,5.3428,5.3481,5.3472,5.3471,5.3511,5.3503,5.3532,5.3518,5.3555,5.3562,5.3541,5.3568,5.3544,5.357,5.3557,5.3621,5.3606,5.362,5.3614,5.3665,5.366,5.384,5.386,5.3697,5.3698,5.37,0,5.3532,5.3569,5.3564,5.358,5.3582,5.3609,5.3623,5.3592,5.3607,5.3614,5.3642,5.3665,5.3682,5.3727,5.3714,5.3733,5.3716,5.3778,5.3719,5.3725,5.3714,5.371,5.3713,5.3789,5.3791,5.3793,5.3794,0,5.368,5.3668,5.3689,5.3706,5.3723,5.3735,5.3744,5.376,5.3728,5.3748,5.3775,5.3788,5.3814,5.3838,5.3853,5.3851,5.3817,5.3813,5.3825,5.3833,5.3838,5.3833,5.3649,5.3808,5.3807,5.3806,5.3805,5.3805,5.379,5.382,5.382,5.3845,5.3848,5.3857,5.3883,5.3873,5.3895,5.3913,5.3894,5.3926,5.3928,5.3945,5.3947,5.3971,5.3945,5.3964,5.3968,5.3972,5.3978,5.3837,5.3974,5.3974,5.3974,5.3973,5.3973,0,5.3934,5.3931,5.3954,5.3967,5.3986,5.3954,5.3962,5.3979,5.4008,5.4013,5.403,5.406,5.4082,5.4071,5.409,5.4111,5.4096,5.4117,5.4114,5.4113,5.4002,5.3988,5.4129,5.4129,5.4129,5.4129,5.4129,5.4129,5.401,5.4058,5.4046,5.4095,5.4092,5.4123,5.413,5.4138,5.4141,5.4176,5.4194,5.4187,5.4184,5.4203,5.4221,5.4217,5.4225,5.4251,5.4242,5.4137,5.4121,5.4107,5.4093,5.4254,5.4254,5.4351,5.4351,5.4352]}]]